Location: Nelson
(41.2830°S, 173.2830°E)
Time: 19:39:06
(UTC+12:00)

ERS-2 - Pass Details

Date: 14 May 2021
Orbit: 491 x 496 km, 98.5° (Epoch: 19 June)

Event Time Altitude Azimuth Distance (km) Brightness Sun altitude
Rises 19:00:31 0° 15° (NNE) 2,571 5.7 -19.1°
Reaches altitude 10° 19:02:34 10° 15° (NNE) 1,698 4.7 -19.5°
Maximum altitude 19:06:13 89° 96° (E) 509 2.0 -20.1°
Drops below altitude 10° 19:09:57 10° 193° (SSW) 1,729 4.9 -20.8°
Sets 19:12:03 0° 193° (SSW) 2,623 5.9 -21.2°
